Time,TemperatureF,DewpointF,PressureIn,WindDirection,WindDirectionDegrees,WindSpeedMPH,WindSpeedGustMPH,Humidity,HourlyPrecipIn,Conditions,Clouds,dailyrainin,SoftwareType,DateUTC
2013-11-04 00:00:00,50.2,41.2,29.85,WNW,289,9.2,9.6,71,0.00,,---,0.00,VWS V14.01,2013-11-03 23:00:00,
2013-11-04 00:05:00,50.0,41.0,29.85,West,279,8.3,9.2,71,0.00,,---,0.00,VWS V14.01,2013-11-03 23:05:00,
2013-11-04 00:10:00,50.0,41.0,29.85,WNW,287,11.2,12.1,71,0.00,,---,0.00,VWS V14.01,2013-11-03 23:10:00,
2013-11-04 00:15:00,50.0,41.0,29.85,WNW,287,13.9,14.3,71,0.00,,---,0.00,VWS V14.01,2013-11-03 23:15:00,
2013-11-04 00:20:00,50.0,41.0,29.85,West,279,6.9,7.8,71,0.00,,---,0.00,VWS V14.01,2013-11-03 23:20:00,
2013-11-04 00:25:00,50.0,40.6,29.85,WNW,282,10.1,10.1,70,0.00,,---,0.00,VWS V14.01,2013-11-03 23:25:00,
2013-11-04 00:30:00,50.2,40.8,29.85,West,276,6.3,6.9,70,0.00,,---,0.00,VWS V14.01,2013-11-03 23:30:00,
2013-11-04 00:35:00,50.2,40.8,29.85,West,273,5.4,6.3,70,0.00,,---,0.00,VWS V14.01,2013-11-03 23:35:00,
2013-11-04 00:40:00,50.0,40.6,29.85,West,280,5.8,6.7,70,0.00,,---,0.00,VWS V14.01,2013-11-03 23:40:00,
2013-11-04 00:45:00,50.0,40.6,29.85,WNW,283,7.4,8.3,70,0.00,,---,0.00,VWS V14.01,2013-11-03 23:45:00,
2013-11-04 00:50:00,50.0,40.6,29.85,West,279,6.7,6.7,70,0.00,,---,0.00,VWS V14.01,2013-11-03 23:50:00,
2013-11-04 00:55:00,50.0,40.6,29.85,West,279,5.4,5.8,70,0.00,,---,0.00,VWS V14.01,2013-11-03 23:55:00,
2013-11-04 01:00:00,50.0,40.6,29.85,West,273,3.1,4.5,70,0.00,,---,0.00,VWS V14.01,2013-11-04 00:00:00,
2013-11-04 01:05:00,49.8,40.4,29.85,WNW,282,7.8,7.8,70,0.00,,---,0.00,VWS V14.01,2013-11-04 00:05:00,
2013-11-04 01:10:00,49.8,40.4,29.88,West,279,4.0,6.3,70,0.00,,---,0.00,VWS V14.01,2013-11-04 00:10:00,
2013-11-04 01:15:00,49.8,40.4,29.88,West,274,5.4,6.7,70,0.00,,---,0.00,VWS V14.01,2013-11-04 00:15:00,
2013-11-04 01:20:00,49.6,40.3,29.88,South,175,3.1,5.4,70,0.00,,---,0.00,VWS V14.01,2013-11-04 00:20:00,
2013-11-04 01:25:00,49.6,40.3,29.88,West,274,7.4,7.4,70,0.00,,---,0.00,VWS V14.01,2013-11-04 00:25:00,
2013-11-04 01:30:00,49.5,40.1,29.88,West,278,4.5,4.9,70,0.00,,---,0.00,VWS V14.01,2013-11-04 00:30:00,
2013-11-04 01:35:00,49.5,40.1,29.88,WNW,289,4.0,5.4,70,0.00,,---,0.00,VWS V14.01,2013-11-04 00:35:00,
2013-11-04 01:40:00,49.3,39.9,29.88,West,263,3.6,4.0,70,0.00,,---,0.00,VWS V14.01,2013-11-04 00:40:00,
2013-11-04 01:45:00,49.1,39.8,29.88,West,277,0.0,2.7,70,0.00,,---,0.00,VWS V14.01,2013-11-04 00:45:00,
2013-11-04 01:50:00,48.9,39.9,29.88,West,268,5.4,5.8,71,0.00,,---,0.00,VWS V14.01,2013-11-04 00:50:00,
2013-11-04 01:55:00,48.7,39.8,29.88,West,277,4.5,4.5,71,0.00,,---,0.00,VWS V14.01,2013-11-04 00:55:00,
2013-11-04 02:00:00,48.7,40.1,29.88,West,271,0.0,0.0,72,0.00,,---,0.00,VWS V14.01,2013-11-04 01:00:00,
2013-11-04 02:05:00,48.6,40.0,29.88,West,271,3.6,3.6,72,0.00,,---,0.00,VWS V14.01,2013-11-04 01:05:00,
2013-11-04 02:10:00,48.4,39.8,29.85,West,270,3.6,4.0,72,0.00,,---,0.00,VWS V14.01,2013-11-04 01:10:00,
2013-11-04 02:15:00,48.2,39.6,29.85,West,270,0.0,0.0,72,0.00,,---,0.00,VWS V14.01,2013-11-04 01:15:00,
2013-11-04 02:20:00,48.0,39.8,29.85,West,270,0.0,0.0,73,0.00,,---,0.00,VWS V14.01,2013-11-04 01:20:00,
2013-11-04 02:25:00,47.8,39.6,29.85,West,270,0.0,0.0,73,0.00,,---,0.00,VWS V14.01,2013-11-04 01:25:00,
2013-11-04 02:30:00,47.7,39.8,29.85,West,270,0.0,0.0,74,0.00,,---,0.00,VWS V14.01,2013-11-04 01:30:00,
2013-11-04 02:35:00,47.7,39.8,29.85,West,270,0.0,0.0,74,0.00,,---,0.00,VWS V14.01,2013-11-04 01:35:00,
2013-11-04 02:40:00,47.7,39.8,29.85,West,270,0.0,0.0,74,0.00,,---,0.00,VWS V14.01,2013-11-04 01:40:00,
2013-11-04 02:45:00,47.5,40.0,29.85,West,270,0.0,0.0,75,0.00,,---,0.00,VWS V14.01,2013-11-04 01:45:00,
2013-11-04 02:50:00,47.5,40.0,29.85,West,270,0.0,0.0,75,0.00,,---,0.00,VWS V14.01,2013-11-04 01:50:00,
2013-11-04 02:55:00,47.5,40.0,29.85,West,270,0.0,0.0,75,0.00,,---,0.00,VWS V14.01,2013-11-04 01:55:00,
2013-11-04 03:00:00,47.5,40.3,29.85,West,270,0.0,0.0,76,0.00,,---,0.00,VWS V14.01,2013-11-04 02:00:00,
2013-11-04 03:05:00,47.5,40.3,29.85,West,270,0.0,0.0,76,0.00,,---,0.00,VWS V14.01,2013-11-04 02:05:00,
2013-11-04 03:10:00,47.5,40.3,29.85,West,270,2.7,2.7,76,0.00,,---,0.00,VWS V14.01,2013-11-04 02:10:00,
2013-11-04 03:15:00,47.5,40.3,29.85,West,270,0.0,0.0,76,0.00,,---,0.00,VWS V14.01,2013-11-04 02:15:00,
2013-11-04 03:20:00,47.5,40.6,29.85,West,270,0.0,0.0,77,0.00,,---,0.00,VWS V14.01,2013-11-04 02:20:00,
2013-11-04 03:25:00,47.7,40.8,29.88,West,270,3.1,3.1,77,0.00,,---,0.00,VWS V14.01,2013-11-04 02:25:00,
2013-11-04 03:30:00,47.7,40.8,29.88,West,270,3.6,4.0,77,0.00,,---,0.00,VWS V14.01,2013-11-04 02:30:00,
2013-11-04 03:36:00,47.7,40.8,29.88,West,270,0.0,0.0,77,0.00,,---,0.00,VWS V14.01,2013-11-04 02:36:00,
2013-11-04 03:41:00,47.5,40.6,29.88,West,270,3.6,3.6,77,0.00,,---,0.00,VWS V14.01,2013-11-04 02:41:00,
2013-11-04 03:46:00,47.5,41.0,29.88,West,270,0.0,0.0,78,0.00,,---,0.00,VWS V14.01,2013-11-04 02:46:00,
2013-11-04 03:51:00,47.3,40.8,29.88,West,270,0.0,0.0,78,0.00,,---,0.00,VWS V14.01,2013-11-04 02:51:00,
2013-11-04 03:56:00,47.3,40.8,29.88,West,270,3.1,3.6,78,0.00,,---,0.00,VWS V14.01,2013-11-04 02:56:00,
2013-11-04 04:01:00,47.3,41.1,29.88,West,270,0.0,0.0,79,0.00,,---,0.00,VWS V14.01,2013-11-04 03:01:00,
2013-11-04 04:06:00,47.1,41.0,29.88,West,270,0.0,0.0,79,0.00,,---,0.00,VWS V14.01,2013-11-04 03:06:00,
2013-11-04 04:11:00,46.9,40.8,29.88,West,270,0.0,0.0,79,0.00,,---,0.00,VWS V14.01,2013-11-04 03:11:00,
2013-11-04 04:16:00,46.8,40.6,29.88,West,270,0.0,0.0,79,0.00,,---,0.00,VWS V14.01,2013-11-04 03:16:00,
2013-11-04 04:21:00,46.8,40.9,29.88,West,270,0.0,0.0,80,0.00,,---,0.00,VWS V14.01,2013-11-04 03:21:00,
2013-11-04 04:26:00,46.8,40.9,29.85,West,270,0.0,0.0,80,0.00,,---,0.00,VWS V14.01,2013-11-04 03:26:00,
2013-11-04 04:31:00,46.9,41.1,29.85,West,263,4.9,4.9,80,0.00,,---,0.00,VWS V14.01,2013-11-04 03:31:00,
2013-11-04 04:36:00,46.9,41.4,29.85,SW,233,3.6,4.5,81,0.00,,---,0.00,VWS V14.01,2013-11-04 03:36:00,
2013-11-04 04:41:00,46.9,41.4,29.85,SW,233,4.0,4.5,81,0.00,,---,0.00,VWS V14.01,2013-11-04 03:41:00,
2013-11-04 04:46:00,46.9,41.4,29.85,South,171,4.0,5.4,81,0.00,,---,0.00,VWS V14.01,2013-11-04 03:46:00,
2013-11-04 04:51:00,46.9,41.4,29.85,South,171,3.1,4.9,81,0.00,,---,0.00,VWS V14.01,2013-11-04 03:51:00,
2013-11-04 04:56:00,46.8,41.2,29.85,South,171,0.0,0.0,81,0.00,,---,0.00,VWS V14.01,2013-11-04 03:56:00,
2013-11-04 05:01:00,46.8,41.2,29.85,South,171,0.0,0.0,81,0.00,,---,0.00,VWS V14.01,2013-11-04 04:01:00,
2013-11-04 05:06:00,46.6,41.1,29.85,South,171,0.0,0.0,81,0.00,,---,0.00,VWS V14.01,2013-11-04 04:06:00,
2013-11-04 05:11:00,46.6,41.4,29.85,South,171,4.0,4.0,82,0.00,,---,0.00,VWS V14.01,2013-11-04 04:11:00,
2013-11-04 05:16:00,46.4,41.2,29.85,South,171,5.4,6.3,82,0.00,,---,0.00,VWS V14.01,2013-11-04 04:16:00,
2013-11-04 05:21:00,46.2,41.0,29.85,SSE,163,4.5,5.4,82,0.00,,---,0.00,VWS V14.01,2013-11-04 04:21:00,
2013-11-04 05:26:00,46.2,41.0,29.85,SSE,165,4.0,4.0,82,0.00,,---,0.00,VWS V14.01,2013-11-04 04:26:00,
2013-11-04 05:31:00,46.0,41.2,29.85,SSE,165,2.7,4.0,83,0.00,,---,0.00,VWS V14.01,2013-11-04 04:31:00,
2013-11-04 05:36:00,46.0,41.2,29.85,SSE,165,3.6,3.6,83,0.00,,---,0.00,VWS V14.01,2013-11-04 04:36:00,
2013-11-04 05:41:00,46.0,41.2,29.85,SSE,165,4.5,4.5,83,0.00,,---,0.00,VWS V14.01,2013-11-04 04:41:00,
2013-11-04 05:46:00,45.9,41.0,29.85,SSE,165,3.1,4.0,83,0.00,,---,0.00,VWS V14.01,2013-11-04 04:46:00,
2013-11-04 05:51:00,45.9,41.3,29.85,SSE,165,0.0,0.0,84,0.00,,---,0.00,VWS V14.01,2013-11-04 04:51:00,
2013-11-04 05:56:00,45.7,41.1,29.85,SSE,165,0.0,0.0,84,0.00,,---,0.00,VWS V14.01,2013-11-04 04:56:00,
2013-11-04 06:01:00,45.5,41.0,29.85,SSE,165,0.0,0.0,84,0.00,,---,0.00,VWS V14.01,2013-11-04 05:01:00,
2013-11-04 06:02:00,45.5,41.0,29.85,SSE,165,0.0,0.0,84,0.00,,---,0.00,VWS V14.01,2013-11-04 05:02:00,
2013-11-04 06:03:00,45.5,41.0,29.85,SSE,165,0.0,0.0,84,0.00,,---,0.00,VWS V14.01,2013-11-04 05:03:00,
2013-11-04 06:08:00,45.1,40.6,29.85,SSE,165,4.0,4.5,84,0.00,,---,0.00,VWS V14.01,2013-11-04 05:08:00,
2013-11-04 06:13:00,45.1,40.9,29.85,SSE,165,4.0,4.5,85,0.00,,---,0.00,VWS V14.01,2013-11-04 05:13:00,
2013-11-04 06:18:00,45.1,40.9,29.85,SSE,165,4.0,4.0,85,0.00,,---,0.00,VWS V14.01,2013-11-04 05:18:00,
2013-11-04 06:23:00,45.3,41.4,29.85,SSE,165,0.0,3.1,86,0.00,,---,0.00,VWS V14.01,2013-11-04 05:23:00,
2013-11-04 06:28:00,45.5,41.6,29.85,SSE,165,3.1,3.1,86,0.00,,---,0.00,VWS V14.01,2013-11-04 05:28:00,
2013-11-04 06:33:00,45.5,41.3,29.85,SSE,165,2.7,3.1,85,0.00,,---,0.00,VWS V14.01,2013-11-04 05:33:00,
2013-11-04 06:38:00,45.7,41.7,29.83,SSE,165,0.0,0.0,86,0.00,,---,0.00,VWS V14.01,2013-11-04 05:38:00,
2013-11-04 06:43:00,45.5,41.6,29.83,SSE,165,0.0,0.0,86,0.00,,---,0.00,VWS V14.01,2013-11-04 05:43:00,
2013-11-04 06:48:00,45.5,41.6,29.83,SSE,165,0.0,0.0,86,0.00,,---,0.00,VWS V14.01,2013-11-04 05:48:00,
2013-11-04 06:53:00,45.3,41.4,29.83,SSE,165,0.0,2.7,86,0.00,,---,0.00,VWS V14.01,2013-11-04 05:53:00,
2013-11-04 06:58:00,45.1,41.2,29.83,SSE,165,0.0,3.1,86,0.00,,---,0.00,VWS V14.01,2013-11-04 05:58:00,
2013-11-04 07:03:00,44.4,40.2,29.83,SSE,165,0.0,0.0,85,0.00,,---,0.00,VWS V14.01,2013-11-04 06:03:00,
2013-11-04 07:08:00,44.1,40.2,29.83,SSE,165,0.0,0.0,86,0.00,,---,0.00,VWS V14.01,2013-11-04 06:08:00,
2013-11-04 07:13:00,43.7,39.8,29.83,SSE,165,0.0,0.0,86,0.00,,---,0.00,VWS V14.01,2013-11-04 06:13:00,
2013-11-04 07:18:00,43.5,39.6,29.83,SSE,165,0.0,0.0,86,0.00,,---,0.00,VWS V14.01,2013-11-04 06:18:00,
2013-11-04 07:23:00,43.9,40.0,29.83,SSE,165,0.0,0.0,86,0.00,,---,0.00,VWS V14.01,2013-11-04 06:23:00,
2013-11-04 07:28:00,44.1,40.5,29.83,SSE,165,0.0,0.0,87,0.00,,---,0.00,VWS V14.01,2013-11-04 06:28:00,
2013-11-04 07:33:00,44.2,40.6,29.83,SSE,165,0.0,0.0,87,0.00,,---,0.00,VWS V14.01,2013-11-04 06:33:00,
2013-11-04 07:38:00,44.2,40.6,29.83,SSE,165,0.0,0.0,87,0.00,,---,0.00,VWS V14.01,2013-11-04 06:38:00,
2013-11-04 07:43:00,44.4,40.8,29.83,SSE,165,0.0,0.0,87,0.00,,---,0.00,VWS V14.01,2013-11-04 06:43:00,
2013-11-04 07:48:00,44.6,41.3,29.83,SSE,165,2.7,3.1,88,0.00,,---,0.00,VWS V14.01,2013-11-04 06:48:00,
2013-11-04 07:53:00,44.8,41.5,29.83,SSE,165,0.0,0.0,88,0.00,,---,0.00,VWS V14.01,2013-11-04 06:53:00,
2013-11-04 07:58:00,45.0,41.6,29.83,SSE,165,0.0,0.0,88,0.00,,---,0.00,VWS V14.01,2013-11-04 06:58:00,
2013-11-04 08:03:00,45.1,41.8,29.83,SSE,165,0.0,0.0,88,0.00,,---,0.00,VWS V14.01,2013-11-04 07:03:00,
2013-11-04 08:08:00,45.3,42.3,29.83,SSE,165,0.0,0.0,89,0.00,,---,0.00,VWS V14.01,2013-11-04 07:08:00,
2013-11-04 08:13:00,46.0,43.0,29.83,SSE,165,0.0,0.0,89,0.00,,---,0.00,VWS V14.01,2013-11-04 07:13:00,
2013-11-04 08:18:00,46.4,43.3,29.83,SSE,165,0.0,0.0,89,0.00,,---,0.00,VWS V14.01,2013-11-04 07:18:00,
2013-11-04 08:23:00,46.8,43.7,29.83,SSE,165,0.0,0.0,89,0.00,,---,0.00,VWS V14.01,2013-11-04 07:23:00,
2013-11-04 08:28:00,46.8,43.4,29.83,SSE,165,3.1,3.1,88,0.00,,---,0.00,VWS V14.01,2013-11-04 07:28:00,
2013-11-04 08:33:00,46.8,43.4,29.83,SSE,165,2.7,2.7,88,0.00,,---,0.00,VWS V14.01,2013-11-04 07:33:00,
2013-11-04 08:38:00,46.9,43.3,29.83,SSE,165,0.0,4.5,87,0.00,,---,0.00,VWS V14.01,2013-11-04 07:38:00,
2013-11-04 08:43:00,46.9,43.3,29.83,SSE,166,4.0,4.9,87,0.00,,---,0.00,VWS V14.01,2013-11-04 07:43:00,
2013-11-04 08:48:00,47.1,43.5,29.83,SSE,166,0.0,4.0,87,0.00,,---,0.00,VWS V14.01,2013-11-04 07:48:00,
2013-11-04 08:53:00,47.5,43.5,29.83,SSE,166,0.0,0.0,86,0.00,,---,0.00,VWS V14.01,2013-11-04 07:53:00,
2013-11-04 08:59:00,47.7,43.7,29.83,SSE,167,0.0,2.7,86,0.00,,---,0.00,VWS V14.01,2013-11-04 07:59:00,
2013-11-04 09:04:00,48.0,44.0,29.83,SSE,167,0.0,0.0,86,0.00,,---,0.00,VWS V14.01,2013-11-04 08:04:00,
2013-11-04 09:09:00,48.2,44.2,29.83,SSE,167,0.0,0.0,86,0.00,,---,0.00,VWS V14.01,2013-11-04 08:09:00,
2013-11-04 09:14:00,48.4,44.4,29.83,SSE,167,0.0,0.0,86,0.00,,---,0.00,VWS V14.01,2013-11-04 08:14:00,
2013-11-04 09:19:00,48.6,44.6,29.83,SSE,167,0.0,0.0,86,0.00,,---,0.00,VWS V14.01,2013-11-04 08:19:00,
2013-11-04 09:24:00,48.7,44.4,29.83,SSE,167,0.0,3.6,85,0.00,,---,0.00,VWS V14.01,2013-11-04 08:24:00,
2013-11-04 09:29:00,48.9,44.6,29.83,SSE,166,4.0,6.3,85,0.00,,---,0.00,VWS V14.01,2013-11-04 08:29:00,
2013-11-04 09:34:00,49.1,44.5,29.83,South,170,3.6,4.5,84,0.00,,---,0.00,VWS V14.01,2013-11-04 08:34:00,
2013-11-04 09:39:00,49.1,44.2,29.83,South,170,4.5,5.4,83,0.00,,---,0.00,VWS V14.01,2013-11-04 08:39:00,
2013-11-04 09:44:00,49.3,43.7,29.83,SSE,167,7.4,7.4,81,0.00,,---,0.00,VWS V14.01,2013-11-04 08:44:00,
2013-11-04 09:49:00,49.3,43.4,29.83,South,172,6.3,8.3,80,0.00,,---,0.00,VWS V14.01,2013-11-04 08:49:00,
2013-11-04 09:54:00,49.5,43.6,29.80,South,174,5.8,6.9,80,0.00,,---,0.00,VWS V14.01,2013-11-04 08:54:00,
2013-11-04 09:59:00,49.8,43.6,29.80,SSE,164,3.6,6.3,79,0.00,,---,0.00,VWS V14.01,2013-11-04 08:59:00,
2013-11-04 10:04:00,50.0,43.8,29.80,SSE,168,3.6,4.9,79,0.00,,---,0.00,VWS V14.01,2013-11-04 09:04:00,
2013-11-04 10:09:00,50.2,43.9,29.80,SSE,155,4.0,8.7,79,0.00,,---,0.00,VWS V14.01,2013-11-04 09:09:00,
2013-11-04 10:14:00,50.4,43.4,29.80,SSE,164,0.0,7.4,77,0.00,,---,0.00,VWS V14.01,2013-11-04 09:14:00,
2013-11-04 10:19:00,50.5,43.6,29.80,SSE,167,3.6,6.7,77,0.00,,---,0.00,VWS V14.01,2013-11-04 09:19:00,
2013-11-04 10:24:00,50.7,43.8,29.80,South,173,2.7,6.7,77,0.00,,---,0.00,VWS V14.01,2013-11-04 09:24:00,
2013-11-04 10:29:00,51.3,44.3,29.80,South,172,0.0,3.6,77,0.00,,---,0.00,VWS V14.01,2013-11-04 09:29:00,
2013-11-04 10:34:00,51.6,44.3,29.80,South,172,4.0,5.8,76,0.00,,---,0.00,VWS V14.01,2013-11-04 09:34:00,
2013-11-04 10:39:00,51.8,44.1,29.80,South,170,4.5,5.4,75,0.00,,---,0.00,VWS V14.01,2013-11-04 09:39:00,
2013-11-04 10:44:00,52.0,44.3,29.80,South,170,2.7,2.7,75,0.00,,---,0.00,VWS V14.01,2013-11-04 09:44:00,
2013-11-04 10:49:00,52.2,44.1,29.80,South,170,0.0,2.7,74,0.00,,---,0.00,VWS V14.01,2013-11-04 09:49:00,
2013-11-04 10:54:00,52.2,44.1,29.80,SSE,167,8.7,8.7,74,0.00,,---,0.00,VWS V14.01,2013-11-04 09:54:00,
2013-11-04 10:59:00,52.2,43.1,29.80,SSE,159,5.4,7.8,71,0.00,,---,0.00,VWS V14.01,2013-11-04 09:59:00,
2013-11-04 11:04:00,52.2,42.3,29.80,SSE,168,7.8,8.3,69,0.00,,---,0.00,VWS V14.01,2013-11-04 10:04:00,
2013-11-04 11:09:00,52.2,42.3,29.77,South,172,3.1,5.4,69,0.00,,---,0.00,VWS V14.01,2013-11-04 10:09:00,
2013-11-04 11:14:00,52.2,41.9,29.77,South,172,7.8,7.8,68,0.00,,---,0.00,VWS V14.01,2013-11-04 10:14:00,
2013-11-04 11:19:00,52.2,41.5,29.77,SSE,167,2.7,7.4,67,0.00,,---,0.00,VWS V14.01,2013-11-04 10:19:00,
2013-11-04 11:24:00,52.3,41.3,29.77,SSE,163,3.6,6.9,66,0.00,,---,0.00,VWS V14.01,2013-11-04 10:24:00,
2013-11-04 11:29:00,52.3,41.3,29.77,SSE,167,4.0,4.0,66,0.00,,---,0.00,VWS V14.01,2013-11-04 10:29:00,
2013-11-04 11:34:00,52.3,41.3,29.77,SSE,162,6.3,6.3,66,0.00,,---,0.00,VWS V14.01,2013-11-04 10:34:00,
2013-11-04 11:39:00,52.2,41.5,29.77,SSE,163,6.7,6.7,67,0.00,,---,0.00,VWS V14.01,2013-11-04 10:39:00,
2013-11-04 11:44:00,52.0,41.8,29.77,SSE,166,6.7,10.5,68,0.00,,---,0.00,VWS V14.01,2013-11-04 10:44:00,
2013-11-04 11:49:00,52.0,42.1,29.77,South,171,8.7,8.7,69,0.00,,---,0.00,VWS V14.01,2013-11-04 10:49:00,
2013-11-04 11:54:00,52.0,42.5,29.74,SSE,168,7.8,7.8,70,0.00,,---,0.00,VWS V14.01,2013-11-04 10:54:00,
2013-11-04 11:59:00,52.0,42.5,29.74,SSE,166,4.9,10.5,70,0.00,,---,0.00,VWS V14.01,2013-11-04 10:59:00,
2013-11-04 12:04:00,51.8,42.3,29.74,SSE,168,8.7,11.0,70,0.00,,---,0.00,VWS V14.01,2013-11-04 11:04:00,
2013-11-04 12:09:00,51.8,42.3,29.74,SSE,153,6.9,8.3,70,0.00,,---,0.00,VWS V14.01,2013-11-04 11:09:00,
2013-11-04 12:14:00,51.8,42.3,29.74,SSE,164,8.3,9.2,70,0.00,,---,0.00,VWS V14.01,2013-11-04 11:14:00,
2013-11-04 12:19:00,51.8,42.3,29.74,SSE,166,8.7,8.7,70,0.00,,---,0.00,VWS V14.01,2013-11-04 11:19:00,
2013-11-04 12:22:00,51.6,42.5,29.74,South,171,5.8,8.7,71,0.00,,---,0.00,VWS V14.01,2013-11-04 11:22:00,
2013-11-04 12:27:00,51.6,42.5,29.74,South,170,6.9,7.4,71,0.00,,---,0.00,VWS V14.01,2013-11-04 11:27:00,
2013-11-04 12:32:00,51.6,42.9,29.74,South,171,4.5,4.5,72,0.00,,---,0.00,VWS V14.01,2013-11-04 11:32:00,
2013-11-04 12:37:00,51.6,43.3,29.71,South,172,4.0,5.4,73,0.00,,---,0.00,VWS V14.01,2013-11-04 11:37:00,
2013-11-04 12:42:00,51.4,43.1,29.71,South,172,4.0,5.4,73,0.00,,---,0.00,VWS V14.01,2013-11-04 11:42:00,
2013-11-04 12:47:00,51.4,43.4,29.71,South,172,4.5,5.4,74,0.00,,---,0.00,VWS V14.01,2013-11-04 11:47:00,
2013-11-04 12:52:00,51.4,43.4,29.71,South,170,6.3,6.7,74,0.00,,---,0.00,VWS V14.01,2013-11-04 11:52:00,
2013-11-04 12:57:00,51.4,43.4,29.71,South,170,3.6,6.3,74,0.00,,---,0.00,VWS V14.01,2013-11-04 11:57:00,
2013-11-04 13:02:00,51.4,43.4,29.71,SSE,158,6.9,7.4,74,0.00,,---,0.00,VWS V14.01,2013-11-04 12:02:00,
2013-11-04 13:07:00,51.6,43.3,29.71,SSE,163,5.4,6.3,73,0.00,,---,0.00,VWS V14.01,2013-11-04 12:07:00,
2013-11-04 13:12:00,51.6,43.3,29.71,SSE,168,7.8,9.6,73,0.00,,---,0.00,VWS V14.01,2013-11-04 12:12:00,
2013-11-04 13:17:00,51.6,42.9,29.71,SSE,159,7.8,8.3,72,0.00,,---,0.00,VWS V14.01,2013-11-04 12:17:00,
2013-11-04 13:22:00,51.8,43.1,29.68,SSE,165,5.8,6.9,72,0.00,,---,0.00,VWS V14.01,2013-11-04 12:22:00,
2013-11-04 13:27:00,52.0,43.2,29.68,SSE,164,5.4,6.7,72,0.00,,---,0.00,VWS V14.01,2013-11-04 12:27:00,
2013-11-04 13:32:00,52.0,43.2,29.68,SSE,166,5.8,7.8,72,0.00,,---,0.00,VWS V14.01,2013-11-04 12:32:00,
2013-11-04 13:37:00,52.0,43.2,29.68,South,169,6.3,6.9,72,0.00,,---,0.00,VWS V14.01,2013-11-04 12:37:00,
2013-11-04 13:42:00,52.2,43.4,29.68,South,175,3.6,6.7,72,0.00,,---,0.00,VWS V14.01,2013-11-04 12:42:00,
2013-11-04 13:48:00,52.3,43.2,29.68,South,175,6.9,6.9,71,0.00,,---,0.00,VWS V14.01,2013-11-04 12:48:00,
2013-11-04 13:53:00,52.3,43.2,29.65,SSE,167,6.3,6.7,71,0.00,,---,0.00,VWS V14.01,2013-11-04 12:53:00,
2013-11-04 13:58:00,52.5,43.0,29.65,South,174,9.2,12.5,70,0.00,,---,0.00,VWS V14.01,2013-11-04 12:58:00,
2013-11-04 14:03:00,52.5,42.7,29.65,SSE,159,6.9,9.2,69,0.00,,---,0.00,VWS V14.01,2013-11-04 13:03:00,
2013-11-04 14:08:00,52.7,42.1,29.65,South,174,5.8,8.3,67,0.00,,---,0.00,VWS V14.01,2013-11-04 13:08:00,
2013-11-04 14:13:00,52.9,41.5,29.65,South,174,5.8,7.4,65,0.00,,---,0.00,VWS V14.01,2013-11-04 13:13:00,
2013-11-04 14:18:00,52.9,40.6,29.65,SSE,164,6.9,8.3,63,0.00,,---,0.00,VWS V14.01,2013-11-04 13:18:00,
2013-11-04 14:23:00,52.9,40.6,29.65,SSE,167,4.0,4.5,63,0.00,,---,0.00,VWS V14.01,2013-11-04 13:23:00,
2013-11-04 14:28:00,52.9,40.2,29.65,South,169,6.9,11.2,62,0.00,,---,0.00,VWS V14.01,2013-11-04 13:28:00,
2013-11-04 14:33:00,52.7,40.1,29.65,SSE,168,5.8,7.4,62,0.00,,---,0.00,VWS V14.01,2013-11-04 13:33:00,
2013-11-04 14:38:00,52.7,40.1,29.65,South,174,8.3,8.3,62,0.00,,---,0.00,VWS V14.01,2013-11-04 13:38:00,
2013-11-04 14:43:00,52.7,40.5,29.65,SSE,167,7.4,7.4,63,0.00,,---,0.00,VWS V14.01,2013-11-04 13:43:00,
2013-11-04 14:48:00,52.7,40.5,29.65,South,172,7.8,8.7,63,0.00,,---,0.00,VWS V14.01,2013-11-04 13:48:00,
2013-11-04 14:53:00,52.5,40.7,29.62,South,169,5.4,6.7,64,0.00,,---,0.00,VWS V14.01,2013-11-04 13:53:00,
2013-11-04 14:58:00,52.5,40.7,29.62,South,170,6.3,7.4,64,0.00,,---,0.00,VWS V14.01,2013-11-04 13:58:00,
2013-11-04 15:03:00,52.5,41.1,29.62,SSE,163,9.6,10.5,65,0.00,,---,0.00,VWS V14.01,2013-11-04 14:03:00,
2013-11-04 15:08:00,52.7,41.3,29.62,SSE,167,5.8,12.1,65,0.00,,---,0.00,VWS V14.01,2013-11-04 14:08:00,
2013-11-04 15:13:00,52.7,41.3,29.62,SE,145,7.8,8.3,65,0.00,,---,0.00,VWS V14.01,2013-11-04 14:13:00,
2013-11-04 15:18:00,52.7,41.7,29.62,SSE,155,7.4,9.2,66,0.00,,---,0.00,VWS V14.01,2013-11-04 14:18:00,
2013-11-04 15:23:00,52.5,41.5,29.62,SSE,166,3.1,6.7,66,0.00,,---,0.00,VWS V14.01,2013-11-04 14:23:00,
2013-11-04 15:28:00,52.5,41.5,29.62,South,170,5.4,6.7,66,0.00,,---,0.00,VWS V14.01,2013-11-04 14:28:00,
2013-11-04 15:33:00,52.5,41.5,29.62,SSE,168,2.7,6.9,66,0.00,,---,0.00,VWS V14.01,2013-11-04 14:33:00,
2013-11-04 15:38:00,52.5,41.9,29.62,SSE,166,6.9,6.9,67,0.00,,---,0.00,VWS V14.01,2013-11-04 14:38:00,
2013-11-04 15:43:00,52.5,41.9,29.62,SSE,165,7.8,9.2,67,0.00,,---,0.00,VWS V14.01,2013-11-04 14:43:00,
2013-11-04 15:48:00,52.5,42.3,29.62,South,173,3.6,10.5,68,0.00,,---,0.00,VWS V14.01,2013-11-04 14:48:00,
2013-11-04 15:53:00,52.3,42.5,29.62,South,169,6.9,8.3,69,0.00,,---,0.00,VWS V14.01,2013-11-04 14:53:00,
2013-11-04 15:58:00,52.3,42.9,29.62,SSE,151,4.5,8.3,70,0.00,,---,0.00,VWS V14.01,2013-11-04 14:58:00,
2013-11-04 16:03:00,52.3,43.2,29.62,South,171,4.5,9.6,71,0.00,,---,0.00,VWS V14.01,2013-11-04 15:03:00,
2013-11-04 16:08:00,52.3,43.6,29.59,SE,135,5.8,10.1,72,0.00,,---,0.00,VWS V14.01,2013-11-04 15:08:00,
2013-11-04 16:13:00,52.3,44.0,29.59,SSE,158,5.8,10.1,73,0.00,,---,0.00,VWS V14.01,2013-11-04 15:13:00,
2013-11-04 16:18:00,52.3,44.0,29.59,SSE,167,6.9,7.8,73,0.00,,---,0.00,VWS V14.01,2013-11-04 15:18:00,
2013-11-04 16:23:00,52.3,44.3,29.59,SSE,167,4.5,10.1,74,0.00,,---,0.00,VWS V14.01,2013-11-04 15:23:00,
2013-11-04 16:28:00,52.2,44.1,29.59,SSE,165,6.3,9.6,74,0.00,,---,0.00,VWS V14.01,2013-11-04 15:28:00,
2013-11-04 16:33:00,52.2,44.5,29.59,South,174,8.3,9.2,75,0.00,,---,0.00,VWS V14.01,2013-11-04 15:33:00,
2013-11-04 16:38:00,52.0,44.3,29.59,South,176,6.3,8.7,75,0.00,,---,0.00,VWS V14.01,2013-11-04 15:38:00,
2013-11-04 16:43:00,52.0,44.7,29.59,South,176,5.4,9.2,76,0.00,,---,0.00,VWS V14.01,2013-11-04 15:43:00,
2013-11-04 16:48:00,51.8,44.8,29.59,SSE,168,4.9,8.7,77,0.00,,---,0.00,VWS V14.01,2013-11-04 15:48:00,
2013-11-04 16:53:00,51.8,45.2,29.59,SSE,159,9.6,9.6,78,0.00,,---,0.00,VWS V14.01,2013-11-04 15:53:00,
2013-11-04 16:58:00,51.8,45.2,29.59,SSE,162,6.9,6.9,78,0.00,,---,0.00,VWS V14.01,2013-11-04 15:58:00,
2013-11-04 17:03:00,51.8,45.5,29.59,South,173,5.8,7.4,79,0.00,,---,0.00,VWS V14.01,2013-11-04 16:03:00,
2013-11-04 17:08:00,51.6,45.7,29.59,SSE,164,6.9,7.8,80,0.00,,---,0.00,VWS V14.01,2013-11-04 16:08:00,
2013-11-04 17:13:00,51.6,45.7,29.59,SSE,160,6.7,7.8,80,0.00,,---,0.00,VWS V14.01,2013-11-04 16:13:00,
2013-11-04 17:18:00,51.6,46.0,29.59,SSE,151,8.3,8.3,81,0.00,,---,0.00,VWS V14.01,2013-11-04 16:18:00,
2013-11-04 17:23:00,51.6,46.0,29.59,South,175,7.8,7.8,81,0.00,,---,0.00,VWS V14.01,2013-11-04 16:23:00,
2013-11-04 17:28:00,51.4,46.1,29.59,SSE,168,6.3,6.7,82,0.00,,---,0.00,VWS V14.01,2013-11-04 16:28:00,
2013-11-04 17:33:00,51.4,46.1,29.59,South,172,5.8,5.8,82,0.00,,---,0.00,VWS V14.01,2013-11-04 16:33:00,
2013-11-04 17:38:00,51.4,46.5,29.59,SSE,166,10.1,10.1,83,0.00,,---,0.00,VWS V14.01,2013-11-04 16:38:00,
2013-11-04 17:43:00,51.4,46.5,29.59,SSE,167,4.0,7.4,83,0.00,,---,0.00,VWS V14.01,2013-11-04 16:43:00,
2013-11-04 17:48:00,51.4,46.8,29.59,South,174,4.9,4.9,84,0.00,,---,0.00,VWS V14.01,2013-11-04 16:48:00,
2013-11-04 17:53:00,51.4,46.8,29.56,South,172,5.4,6.3,84,0.00,,---,0.00,VWS V14.01,2013-11-04 16:53:00,
2013-11-04 17:58:00,51.4,46.8,29.56,SSE,166,4.5,5.4,84,0.00,,---,0.00,VWS V14.01,2013-11-04 16:58:00,
2013-11-04 18:03:00,51.4,47.1,29.56,South,170,5.4,5.4,85,0.00,,---,0.00,VWS V14.01,2013-11-04 17:03:00,
2013-11-04 18:08:00,51.4,47.1,29.56,South,171,6.7,6.7,85,0.00,,---,0.00,VWS V14.01,2013-11-04 17:08:00,
2013-11-04 18:13:00,51.4,47.1,29.56,SSE,164,4.9,6.3,85,0.00,,---,0.00,VWS V14.01,2013-11-04 17:13:00,
2013-11-04 18:18:00,51.4,47.1,29.56,South,170,4.5,4.9,85,0.00,,---,0.00,VWS V14.01,2013-11-04 17:18:00,
2013-11-04 18:23:00,51.4,47.4,29.56,South,172,4.9,5.4,86,0.00,,---,0.00,VWS V14.01,2013-11-04 17:23:00,
2013-11-04 18:28:00,51.3,47.2,29.56,South,173,4.9,4.9,86,0.00,,---,0.00,VWS V14.01,2013-11-04 17:28:00,
2013-11-04 18:33:00,51.3,47.2,29.56,South,170,3.6,6.7,86,0.00,,---,0.00,VWS V14.01,2013-11-04 17:33:00,
2013-11-04 18:38:00,51.3,47.5,29.56,South,170,4.0,5.4,87,0.00,,---,0.00,VWS V14.01,2013-11-04 17:38:00,
2013-11-04 18:43:00,51.3,47.5,29.56,South,172,4.5,4.5,87,0.00,,---,0.00,VWS V14.01,2013-11-04 17:43:00,
2013-11-04 18:48:00,51.3,47.5,29.56,South,172,0.0,0.0,87,0.00,,---,0.00,VWS V14.01,2013-11-04 17:48:00,
2013-11-04 18:53:00,51.3,47.8,29.56,South,172,3.1,3.6,88,0.00,,---,0.00,VWS V14.01,2013-11-04 17:53:00,
2013-11-04 18:58:00,51.3,47.8,29.56,South,173,3.1,4.5,88,0.00,,---,0.00,VWS V14.01,2013-11-04 17:58:00,
2013-11-04 19:03:00,51.3,47.8,29.56,South,173,0.0,0.0,88,0.00,,---,0.00,VWS V14.01,2013-11-04 18:03:00,
2013-11-04 19:08:00,51.3,47.8,29.56,South,173,2.7,3.6,88,0.00,,---,0.00,VWS V14.01,2013-11-04 18:08:00,
2013-11-04 19:13:00,51.3,48.1,29.56,South,173,3.1,3.1,89,0.00,,---,0.00,VWS V14.01,2013-11-04 18:13:00,
2013-11-04 19:19:00,51.6,48.5,29.56,South,173,3.6,4.9,89,0.00,,---,0.00,VWS V14.01,2013-11-04 18:19:00,
2013-11-04 19:24:00,52.3,49.5,29.56,South,173,4.5,4.5,90,0.00,,---,0.00,VWS V14.01,2013-11-04 18:24:00,
2013-11-04 19:29:00,52.5,49.7,29.56,South,174,4.9,4.9,90,0.00,,---,0.00,VWS V14.01,2013-11-04 18:29:00,
2013-11-04 19:34:00,52.7,49.8,29.56,South,174,0.0,5.4,90,0.00,,---,0.00,VWS V14.01,2013-11-04 18:34:00,
2013-11-04 19:39:00,52.3,49.5,29.53,South,174,3.6,4.5,90,0.00,,---,0.00,VWS V14.01,2013-11-04 18:39:00,
2013-11-04 19:44:00,52.2,49.0,29.53,South,174,4.0,4.9,89,0.00,,---,0.00,VWS V14.01,2013-11-04 18:44:00,
2013-11-04 19:49:00,52.0,48.8,29.53,South,174,0.0,0.0,89,0.00,,---,0.00,VWS V14.01,2013-11-04 18:49:00,
2013-11-04 19:54:00,52.0,49.1,29.53,South,174,0.0,0.0,90,0.00,,---,0.00,VWS V14.01,2013-11-04 18:54:00,
2013-11-04 19:59:00,51.8,49.0,29.53,South,174,0.0,0.0,90,0.00,,---,0.00,VWS V14.01,2013-11-04 18:59:00,
2013-11-04 20:04:00,51.8,49.0,29.53,South,174,0.0,0.0,90,0.00,,---,0.00,VWS V14.01,2013-11-04 19:04:00,
2013-11-04 20:09:00,51.8,49.0,29.53,South,174,0.0,0.0,90,0.00,,---,0.00,VWS V14.01,2013-11-04 19:09:00,
2013-11-04 20:14:00,51.8,49.0,29.53,South,174,0.0,2.7,90,0.00,,---,0.00,VWS V14.01,2013-11-04 19:14:00,
2013-11-04 20:19:00,51.8,49.0,29.53,South,174,0.0,0.0,90,0.00,,---,0.00,VWS V14.01,2013-11-04 19:19:00,
2013-11-04 20:24:00,52.0,49.1,29.53,South,174,0.0,0.0,90,0.00,,---,0.00,VWS V14.01,2013-11-04 19:24:00,
2013-11-04 20:29:00,52.0,49.1,29.53,South,174,0.0,0.0,90,0.00,,---,0.00,VWS V14.01,2013-11-04 19:29:00,
2013-11-04 20:34:00,52.0,49.4,29.53,South,174,0.0,2.7,91,0.00,,---,0.00,VWS V14.01,2013-11-04 19:34:00,
2013-11-04 20:39:00,52.0,49.4,29.53,South,174,3.1,3.1,91,0.00,,---,0.00,VWS V14.01,2013-11-04 19:39:00,
2013-11-04 20:44:00,52.0,49.4,29.53,South,174,3.6,3.6,91,0.00,,---,0.00,VWS V14.01,2013-11-04 19:44:00,
2013-11-04 20:49:00,51.8,49.3,29.53,West,281,4.0,4.0,91,0.00,,---,0.00,VWS V14.01,2013-11-04 19:49:00,
2013-11-04 20:54:00,51.8,49.3,29.53,WNW,291,4.0,4.9,91,0.00,,---,0.00,VWS V14.01,2013-11-04 19:54:00,
2013-11-04 20:59:00,51.6,49.1,29.53,WNW,287,2.7,3.1,91,0.00,,---,0.00,VWS V14.01,2013-11-04 19:59:00,
2013-11-04 21:04:00,51.6,49.1,29.53,WNW,287,2.7,3.1,91,0.00,,---,0.00,VWS V14.01,2013-11-04 20:04:00,
2013-11-04 21:09:00,51.6,49.1,29.53,WNW,287,2.7,3.6,91,0.00,,---,0.00,VWS V14.01,2013-11-04 20:09:00,
2013-11-04 21:14:00,51.6,49.1,29.53,WNW,288,0.0,0.0,91,0.00,,---,0.00,VWS V14.01,2013-11-04 20:14:00,
2013-11-04 21:19:00,51.4,48.9,29.53,WNW,288,0.0,2.7,91,0.00,,---,0.00,VWS V14.01,2013-11-04 20:19:00,
2013-11-04 21:24:00,51.4,49.2,29.53,WNW,288,4.0,4.5,92,0.00,,---,0.00,VWS V14.01,2013-11-04 20:24:00,
2013-11-04 21:29:00,51.4,49.2,29.53,WNW,288,3.1,3.6,92,0.00,,---,0.00,VWS V14.01,2013-11-04 20:29:00,
2013-11-04 21:34:00,51.4,49.2,29.53,WNW,288,0.0,0.0,92,0.00,,---,0.00,VWS V14.01,2013-11-04 20:34:00,
2013-11-04 21:39:00,51.4,49.2,29.53,WNW,288,0.0,0.0,92,0.00,,---,0.00,VWS V14.01,2013-11-04 20:39:00,
2013-11-04 21:44:00,51.4,49.2,29.53,WNW,288,0.0,0.0,92,0.00,,---,0.00,VWS V14.01,2013-11-04 20:44:00,
2013-11-04 21:49:00,51.4,49.2,29.53,WNW,288,0.0,0.0,92,0.00,,---,0.00,VWS V14.01,2013-11-04 20:49:00,
2013-11-04 21:54:00,51.4,49.2,29.53,WNW,288,0.0,0.0,92,0.00,,---,0.00,VWS V14.01,2013-11-04 20:54:00,
2013-11-04 21:59:00,51.4,49.2,29.53,WNW,288,0.0,0.0,92,0.00,,---,0.00,VWS V14.01,2013-11-04 20:59:00,
2013-11-04 22:04:00,51.3,49.0,29.53,WNW,288,0.0,0.0,92,0.00,,---,0.00,VWS V14.01,2013-11-04 21:04:00,
2013-11-04 22:09:00,51.4,49.5,29.50,WNW,288,0.0,0.0,93,0.00,,---,0.00,VWS V14.01,2013-11-04 21:09:00,
2013-11-04 22:14:00,51.4,49.5,29.50,WNW,288,3.6,4.0,93,0.00,,---,0.00,VWS V14.01,2013-11-04 21:14:00,
2013-11-04 22:19:00,51.4,49.5,29.50,WNW,288,0.0,3.1,93,0.00,,---,0.00,VWS V14.01,2013-11-04 21:19:00,
2013-11-04 22:24:00,51.4,49.5,29.50,WNW,288,0.0,0.0,93,0.00,,---,0.00,VWS V14.01,2013-11-04 21:24:00,
2013-11-04 22:29:00,51.4,49.5,29.50,WNW,288,0.0,0.0,93,0.00,,---,0.00,VWS V14.01,2013-11-04 21:29:00,
2013-11-04 22:34:00,51.4,49.5,29.50,WNW,288,0.0,0.0,93,0.00,,---,0.00,VWS V14.01,2013-11-04 21:34:00,
2013-11-04 22:39:00,51.3,49.3,29.50,WNW,288,0.0,2.7,93,0.00,,---,0.00,VWS V14.01,2013-11-04 21:39:00,
2013-11-04 22:44:00,51.3,49.3,29.50,WNW,288,0.0,0.0,93,0.00,,---,0.00,VWS V14.01,2013-11-04 21:44:00,
2013-11-04 22:49:00,51.3,49.3,29.50,WNW,288,0.0,0.0,93,0.00,,---,0.00,VWS V14.01,2013-11-04 21:49:00,
2013-11-04 22:54:00,51.1,49.1,29.50,WNW,288,0.0,0.0,93,0.00,,---,0.00,VWS V14.01,2013-11-04 21:54:00,
2013-11-04 22:59:00,51.3,49.6,29.50,WNW,288,0.0,0.0,94,0.00,,---,0.00,VWS V14.01,2013-11-04 21:59:00,
2013-11-04 23:04:00,51.3,49.6,29.50,WNW,288,0.0,0.0,94,0.00,,---,0.00,VWS V14.01,2013-11-04 22:04:00,
2013-11-04 23:09:00,51.3,49.6,29.50,WNW,288,0.0,0.0,94,0.00,,---,0.00,VWS V14.01,2013-11-04 22:09:00,
2013-11-04 23:14:00,51.3,49.6,29.50,WNW,288,0.0,0.0,94,0.00,,---,0.00,VWS V14.01,2013-11-04 22:14:00,
2013-11-04 23:19:00,51.3,49.6,29.50,WNW,288,0.0,0.0,94,0.00,,---,0.00,VWS V14.01,2013-11-04 22:19:00,
2013-11-04 23:24:00,51.3,49.6,29.50,WNW,288,0.0,0.0,94,0.00,,---,0.00,VWS V14.01,2013-11-04 22:24:00,
2013-11-04 23:29:00,51.3,49.6,29.50,West,280,0.0,0.0,94,0.00,,---,0.00,VWS V14.01,2013-11-04 22:29:00,
2013-11-04 23:34:00,51.3,49.6,29.50,West,280,0.0,0.0,94,0.00,,---,0.00,VWS V14.01,2013-11-04 22:34:00,
2013-11-04 23:39:00,51.3,49.6,29.50,West,280,0.0,0.0,94,0.00,,---,0.00,VWS V14.01,2013-11-04 22:39:00,
2013-11-04 23:44:00,51.4,49.8,29.50,West,280,0.0,0.0,94,0.00,,---,0.00,VWS V14.01,2013-11-04 22:44:00,
2013-11-04 23:49:00,51.4,49.8,29.50,West,280,0.0,0.0,94,0.00,,---,0.00,VWS V14.01,2013-11-04 22:49:00,
2013-11-04 23:54:00,51.4,49.8,29.50,West,280,0.0,0.0,94,0.00,,---,0.00,VWS V14.01,2013-11-04 22:54:00,
2013-11-04 23:59:00,51.4,50.1,29.50,West,280,0.0,0.0,95,0.00,,---,0.00,VWS V14.01,2013-11-04 22:59:00,